Regional Weather Roundup
Issued by NWS

Home | Current Version | Previous Version | Text Only | Print | Product List | Glossary On
Versions: 1 2 3 4 5 6 7 8 9 10 11 12 13 14 15 16 17 18 19 20 21 22 23 24 25 26 27 28 29 30 31 32 33 34 35 36 37 38 39 40 41 42 43 44 45 46 47 48 49 50
000
ASUS43 KMPX 221110
RWRMN
WEATHER ROUNDUP FOR MINNESOTA
NATIONAL WEATHER SERVICE TWIN CITIES/CHANHASSEN MN
500 AM CST MON JAN 22 2018


NOTE: "FAIR" INDICATES FEW OR NO CLOUDS BELOW 12,000 FEET WITH NO
SIGNIFICANT WEATHER AND/OR OBSTRUCTIONS TO VISIBILITY. N/A MEANS
CURRENT SKY AND/OR WEATHER CONDITIONS ARE NOT AVAILABLE.

MNZ060>063-068>070-221200-
   Twin Cities Metro

CITY           SKY/WX    TMP DP  RH WIND       PRES   REMARKS
TWIN CITIES    FLURRIES  33  31  92 NE16      29.83F WCI  23
ST PAUL        FLURRIES  33  30  88 NE12G20   29.85F WCI  24
CRYSTAL        CLOUDY    32  27  81 NE15G21   29.84F WCI  22
BLAINE         MOCLDY    34  30  86 N14G24    29.85F WCI  24
LAKEVILLE      CLOUDY    32  30  93 N14G23    29.79F WCI  22
EDEN PRAIRIE   LGT SNOW  33  30  88 NE13      29.81F FOG     WCI  24
SOUTH ST PAUL  FAIR      34  30  84 NE10      29.83S WCI  26
LAKE ELMO      CLOUDY    34  32  93 NE12G20   29.84S WCI  25
$$
MNZ001>005-007-008-013>017-022>024-027-028-221200-
   Northwest Minnesota

CITY           SKY/WX    TMP DP  RH WIND       PRES   REMARKS
BEMIDJI        CLOUDY    25  24  96 NE5       30.01F FOG     WCI  19
HALLOCK        CLOUDY    21  19  93 NE3       30.11R
ROSEAU         CLOUDY    23  19  86 N7        30.10R WCI  15
WARROAD        CLOUDY    23  19  86 NE8       30.10R FOG     WCI  14
THIEF RVR FALL CLOUDY    23  21  92 N10       30.10R WCI  12
CROOKSTON      CLOUDY    25  21  86 NE6       30.11R WCI  18
FOSSTON        CLOUDY    23  21  93 N9        30.05F WCI  13
DETROIT LAKES  CLOUDY    27  27 100 NE10      29.99F WCI  17
MOORHEAD       CLOUDY    25  21  86 N14       30.03F WCI  13
PARK RAPIDS    CLOUDY    25  22  88 NE13      29.97F WCI  14
MAHNOMEN       CLOUDY    25  24  96 NE9       30.01F WCI  15
$$
MNZ006-009>011-018-025>026-221200-
   North Central Minnesota

CITY           SKY/WX    TMP DP  RH WIND       PRES   REMARKS
BAUDETTE       CLOUDY    24  22  91 E6        30.08R WCI  17
FLAG ISLAND    CLOUDY    19  18  93 NE5       30.10S WCI  13
INTL FALLS     CLOUDY    20  17  88 E6        30.09S WCI  12
WASKISH        CLOUDY    25  25 100 NE5       30.06F WCI  19
BIG FORK       CLOUDY    27  27 100 CALM      30.03S FOG
LONGVILLE      CLOUDY    27  25  93 E6        30.00R WCI  20
GRAND RAPIDS   CLOUDY    26  24  92 VRB7      30.02S WCI  18
CRANE LAKE     CLOUDY    18  16  93 CALM      30.09F
ORR            CLOUDY    21  18  86 CALM      30.02S
COOK           CLOUDY    23  21  93 NE3       30.05R
WALKER         CLOUDY    25  24  96 E7        30.00R WCI  17
$$
MNZ012-019>021-037-221200-
   Northeast Minnesota

CITY           SKY/WX    TMP DP  RH WIND       PRES   REMARKS
DULUTH         LGT SNOW  25  23  92 NE14      29.98F VSB 1   WCI  13
HIBBING        CLOUDY    25  23  92 E5        30.02R WCI  19
EVELETH        CLOUDY    24  21  88 E3        30.02F
DULUTH HARBOR  MIX PCPN  28  27  93 NE29      30.03F WCI  13
TWO HARBORS    CLOUDY    27  21  80 NE8G17    30.01F HAZE    WCI  18
SILVER BAY     CLOUDY    23  23 100 NE7       30.03F FOG     WCI  15
GRAND MARAIS     N/A     23  18  81 E10       30.12F WCI  12
G MARAIS ARPRT CLOUDY    16  12  86 N5        30.04S WCI   9
$$
MNZ029>031-032-039>041-046>048-054>057-064-221200-
   West Central Minnesota

CITY           SKY/WX    TMP DP  RH WIND       PRES   REMARKS
FERGUS FALLS   CLOUDY    25  25 100 NE8       29.98R WCI  16
MORRIS         CLOUDY    27  25  93 NE18      29.91F FOG     WCI  13
ALEXANDRIA     CLOUDY    25  24  96 NE14      29.91F FOG     WCI  13
ELBOW LAKE     CLOUDY    24  24  99 E13       29.95F FOG     WCI  13
WADENA         CLOUDY    25  25 100 NE8       29.96F FOG     WCI  16
GLENWOOD       CLOUDY    25  25 100 NE18      29.89F FOG     WCI  11
APPLETON       CLOUDY    27  25  93 N20       29.91F WCI  13
BENSON         CLOUDY    27  25  93 E12G23    29.92F WCI  16
ORTONVILLE     CLOUDY    25  23  93 N16       29.91F FOG     WCI  12
MADISON        CLOUDY    28  28 100 N16G23    29.90S FOG     WCI  17
WILLMAR        CLOUDY    28  27  93 NE21G29   29.88S WCI  15
$$
MNZ033>034-036-042>043-049>051-058-059-221200-
   Central Minnesota

CITY           SKY/WX    TMP DP  RH WIND       PRES   REMARKS
ST CLOUD       CLOUDY    30  27  88 NE13G21   29.89F WCI  20
SAUK CENTRE      N/A     27  26  96 NE17      29.90F WCI  14
PAYNESVILLE    CLOUDY    29  28  98 NE10G20   29.88F WCI  20
AITKIN         CLOUDY    27  21  80 NE10G16   29.95F WCI  17
PINE RIVER     CLOUDY    25  23  93 E8        30.01S WCI  16
BRAINERD       CLOUDY    29  23  78 NE14G24   29.96S WCI  18
STAPLES        CLOUDY    27  25  93 NE7       29.95F WCI  19
LONG PRAIRIE   CLOUDY    27  27 100 N12G22    29.92F WCI  16
LITTLE FALLS   CLOUDY    30  23  74 NE5       29.92F WCI  25
LITCHFIELD     CLOUDY    30  30 100 NE14G22   29.86F WCI  20
BUFFALO        CLOUDY    31  28  88 N13       29.87F WCI  21
MAPLE LAKE     CLOUDY    31  30  93 MISG      29.88F
HUTCHINSON     CLOUDY    31  30  95 N15G22    29.85F WCI  20
$$
MNZ037-044-045-052-053-221200-
   East Central Minnesota

CITY           SKY/WX    TMP DP  RH WIND       PRES   REMARKS
PRINCETON      CLOUDY    30  27  86 NE15      29.90F WCI  19
MORA           CLOUDY    30  27  86 NE9G16    29.94F WCI  22
CAMBRIDGE      CLOUDY    34  27  75 N7G17     29.90F WCI  28
RUSH CITY      CLOUDY    30  26  83 NE12G20   29.91F WCI  21
MOOSE LAKE     CLOUDY    28  27  93 NE8       29.95F FOG     WCI  20
HINCKLEY       CLOUDY    30  28  93 NE13      29.93S WCI  20
CLOQUET        LGT SNOW  27  23  86 E15G22    29.97F WCI  15
MCGREGOR       CLOUDY    28  25  86 NE8G20    29.98F WCI  20
$$
MNZ071>073-080-081-089-090-097-098-221200-
   Southwest Minnesota

CITY           SKY/WX    TMP DP  RH WIND       PRES   REMARKS
MONTEVIDEO     CLOUDY    27  27 100 NE16G22   29.88S FOG     WCI  14
GRANITE FALLS  CLOUDY    30  27  90 N16G23    29.87S WCI  18
CANBY          CLOUDY    27  26  97 N16G23    29.89R FOG     WCI  15
MARSHALL       CLOUDY    26  24  92 N21       29.85R FOG     WCI  12
REDWOOD FALLS  LGT SNOW  29  27  92 NE13G23   29.83S FOG     WCI  19
OLIVIA         CLOUDY    30  28  93 NE16G22   29.84S WCI  19
PIPESTONE      CLOUDY    25  23  93 NE21G29   29.75R WCI  10
WINDOM         LGT SNOW  32  18  55 N24G32    29.70F WCI  19
WORTHINGTON    CLOUDY    31  29  92 N24G32    29.68F WCI  17
JACKSON        CLOUDY    32  30  93 NE26G37   29.69S VSB 3/4 WCI  18
TRACY          LGT SNOW  28  28  96 N22       29.79S WCI  15
SLAYTON        LGT SNOW  27  26  96 N23G31    29.74F WCI  13
$$
MNZ065>067-074>077-082>085-091>093-221200-
   South Central Minnesota

CITY           SKY/WX    TMP DP  RH WIND       PRES   REMARKS
MANKATO        CLOUDY    33  29  85 N21G28    29.75F WCI  21
NEW ULM        FLURRIES  30  27  86 N17G25    29.77F WCI  18
ST JAMES       CLOUDY    32  28  86 N22G31    29.75S WCI  19
FAIRMONT       LGT SNOW  32  31  96 N21G28    29.68F FOG     WCI  20
GLENCOE        LGT SNOW  32  32 100 N9        29.83F WCI  24
FARIBAULT      CLOUDY    34  30  86 N17G25    29.75F WCI  23
OWATONNA       FAIR      36  30  80 N22       29.71F
WASECA         CLOUDY    32  30  93 N22       29.73S WCI  19
ALBERT LEA     MIX PCPN  34  34 100 NE23G29   29.65S WCI  22
$$
MNZ078>079-086>088-094>096-221200-
   Southeast Minnesota

CITY           SKY/WX    TMP DP  RH WIND       PRES   REMARKS
ROCHESTER      RAIN      33  33 100 NE21G28   29.67F FOG     WCI  21
RED WING       CLOUDY    37  28  70 NE9G18    29.78F
STANTON        MOCLDY    35  31  86 NE20      29.75F WCI  24
DODGE CENTER   MIX PCPN  34  32  93 NE15G21   29.68F WCI  24
WINONA         LGT RAIN  36  34  93 E7        29.73F
AUSTIN         RAIN      34  30  86 NE18G29   29.63F WCI  23
PRESTON        LGT RAIN  34  32  93 NE16G24   29.66F WCI  23
$$
ABBREVIATIONS USED IN REMARKS
   TC - TEMPERATURES IN CELSIUS
  WCI - WIND CHILL INDEX
   HX - HEAT INDEX
  VSB - VISIBILITY
$$




USA.gov is the U.S. government's official web portal to all federal, state and local government web resources and services.